Probability
0 0 0 0 0 0 0 0 0 0 0 0 0 0 0 0 0 0 0 1 5 12 17 17 13 8 7 10 14 19 23 25 26 25 20 14 10 6 2 0 0 0 0 0 0 0 0 0 0
0 0 0 0 0 0 0 0 0 0 0 0 0 0 0 0 0 0 0 1 7 14 18 19 18 13 10 12 16 19 22 23 25 27 24 19 13 8 3 1 0 0 0 0 0 0 0 0 0
0 0 0 0 0 0 0 0 0 0 0 0 0 0 1 1 0 0 0 2 10 17 20 24 26 22 16 15 16 17 19 22 26 29 29 24 19 13 6 2 0 0 0 0 0 0 0 0 0
0 0 0 0 0 0 0 0 0 0 0 0 0 1 2 2 1 0 1 5 15 22 24 30 35 31 25 21 18 17 18 21 26 28 29 26 22 17 10 3 0 0 0 0 0 0 0 0 0
0 0 0 0 0 0 0 0 0 0 0 0 0 2 4 5 4 4 5 11 20 26 28 34 41 40 36 31 26 23 21 21 23 23 22 21 21 19 13 5 1 0 0 0 0 0 0 0 0
0 0 0 0 0 0 0 0 0 0 0 0 1 5 10 11 10 12 15 18 24 30 32 37 44 46 44 41 37 31 27 25 22 19 17 16 16 17 14 9 3 0 0 0 0 0 0 0 0
0 0 0 0 0 0 0 0 0 0 0 1 3 8 15 19 22 27 29 27 29 36 41 44 47 47 46 46 44 38 33 29 25 20 16 13 12 12 13 10 5 1 0 0 0 0 0 0 0
0 0 0 0 0 0 0 0 0 0 1 4 7 11 20 32 42 49 47 38 34 38 46 51 52 49 48 50 50 46 41 36 30 24 19 14 10 9 10 9 5 1 0 0 0 0 0 0 0
0 0 0 0 0 0 0 0 0 0 2 8 13 19 32 50 63 67 60 46 36 35 42 50 55 56 57 58 59 59 55 47 39 31 25 19 14 11 11 8 4 1 0 0 0 0 0 0 0
0 0 0 0 0 0 0 0 0 0 2 8 15 24 43 62 71 69 60 48 37 31 35 43 52 60 65 68 71 72 68 60 51 43 37 30 23 18 15 11 5 2 1 1 1 1 0 0 0
0 0 0 0 0 0 0 0 0 0 1 4 10 23 45 62 65 59 52 44 37 32 33 38 45 55 64 70 73 74 73 70 65 59 52 44 34 26 20 14 8 4 3 3 4 4 2 0 0
0 0 0 0 0 0 1 1 1 1 2 5 13 28 47 56 55 49 43 39 38 38 38 39 42 50 58 63 67 68 69 72 72 68 65 58 47 34 24 16 10 7 6 5 6 6 4 1 0
0 0 0 0 0 1 3 3 2 2 6 12 23 37 47 49 45 42 38 36 39 43 45 42 44 49 55 58 61 63 66 69 70 68 67 64 54 41 29 20 13 9 8 7 6 6 5 2 1
0 0 0 0 0 1 3 3 3 4 9 17 27 36 40 40 37 35 33 32 35 42 46 45 45 50 53 55 58 61 63 64 65 64 63 61 53 41 32 26 19 12 9 7 6 5 3 1 1
0 0 0 0 0 1 3 3 3 7 13 20 27 30 32 32 30 27 26 26 30 37 42 43 44 47 49 50 54 58 60 59 58 57 57 55 49 39 32 28 22 17 14 11 7 5 2 1 1
0 0 0 0 0 1 2 3 4 8 15 20 22 24 26 24 21 18 17 19 25 32 37 40 43 44 45 44 46 49 51 51 49 47 47 48 44 36 30 27 23 20 18 14 9 5 2 1 1
0 0 0 0 0 1 2 3 4 7 11 13 14 16 17 14 11 10 11 14 21 28 33 36 39 39 38 36 36 38 41 41 39 37 36 37 36 32 28 26 23 20 18 15 9 4 2 2 1
0 0 0 0 0 0 2 3 4 4 5 6 7 8 7 6 5 7 9 11 17 22 26 29 31 31 29 28 29 32 33 33 32 28 27 28 28 28 27 24 21 18 16 13 8 2 1 2 2
0 0 0 0 0 0 1 3 3 2 2 3 3 3 2 2 2 3 5 8 11 14 17 21 23 22 21 23 25 28 28 29 27 23 21 21 20 21 22 19 15 13 11 9 5 1 0 1 1
0 0 0 0 0 0 1 2 2 2 2 2 2 2 2 2 1 1 2 3 5 7 9 13 16 16 16 18 20 21 21 21 19 17 16 14 14 14 14 12 10 8 8 6 4 1 0 0 0
0 0 0 0 0 0 0 1 1 2 1 1 2 4 4 2 0 0 0 0 1 2 4 6 9 11 12 13 14 15 15 14 12 11 11 9 9 9 9 8 7 6 7 6 3 1 0 0 0
0 0 0 0 0 0 0 0 0 0 0 0 1 3 3 1 0 0 0 1 1 1 1 2 3 6 8 10 11 12 13 11 8 6 6 6 6 7 7 7 6 5 5 3 1 0 0 0 0
0 0 0 0 0 0 0 0 0 0 0 0 0 1 1 0 0 0 0 1 2 2 2 1 1 3 6 7 8 10 10 9 6 3 3 3 4 4 5 5 4 3 2 1 0 0 0 0 0
0 0 0 0 0 0 0 0 0 0 0 0 0 1 0 0 0 0 0 1 1 2 3 2 1 3 4 4 4 5 5 6 4 2 0 1 1 1 2 2 1 1 1 0 0 0 0 0 0
0 0 0 0 0 0 0 0 0 0 0 0 0 0 0 0 0 0 0 0 0 1 2 2 2 2 3 2 1 1 1 3 2 1 0 0 0 0 0 0 0 0 0 0 0 0 0 0 0
0 0 0 0 0 0 0 0 0 0 0 0 0 0 0 0 0 0 0 0 0 0 1 2 2 2 1 1 0 0 0 1 1 0 0 0 0 0 0 0 0 0 0 0 0 0 0 0 0
0 0 0 0 0 0 0 0 0 0 0 0 0 0 0 0 0 0 0 0 0 0 0 1 2 1 0 0 0 0 0 0 0 0 0 0 0 0 0 0 0 0 0 0 0 0 0 0 0
0 0 0 0 0 0 0 0 0 0 0 0 0 0 0 0 0 0 0 0 0 0 0 0 0 0 0 0 0 0 0 0 0 0 0 0 0 0 0 0 0 0 0 0 0 0 0 0 0
0 0 0 0 0 0 0 0 0 0 0 0 0 0 0 0 0 0 0 0 0 0 0 0 0 0 0 0 0 0 0 0 0 0 0 0 0 0 0 0 0 0 0 0 0 0 0 0 0
0 0 0 0 0 0 0 0 0 0 0 0 0 0 0 0 0 0 0 0 0 0 0 0 0 0 0 0 0 0 0 0 0 0 0 0 0 0 0 0 0 0 0 0 0 0 0 0 0
Wind_Speed
3 1 2 4 6 4 4 6 4 4 4 2 1 3 6 7 7 5 1 11 14 16 14 17 19 19 19 17 16 15 15 16 16 16 16 16 16 15 15 15 14 13 13 13 12 12 12 12 13
0 2 4 6 5 0 7 6 5 5 4 5 4 0 2 3 1 3 4 9 15 16 14 15 20 19 19 18 17 16 16 16 15 15 15 15 15 14 14 14 13 13 12 12 12 12 12 12 13
1 4 5 5 4 5 6 4 5 6 7 4 2 0 2 2 2 4 5 13 14 14 12 15 21 19 19 19 18 17 17 16 15 15 15 14 14 13 13 13 13 13 12 12 12 12 12 12 12
3 5 6 5 3 6 6 7 7 9 7 3 3 1 1 3 1 4 10 14 15 13 12 15 20 19 19 18 18 17 17 16 15 15 14 13 13 12 12 12 12 12 12 12 12 12 12 12 12
5 5 5 2 4 6 6 7 6 6 5 2 2 2 1 5 7 9 11 12 13 11 9 13 19 18 18 18 17 17 16 15 14 14 14 13 12 11 11 11 12 12 12 12 11 11 11 11 11
6 6 5 2 5 6 6 5 4 4 3 3 2 3 1 4 7 8 10 9 9 11 9 11 17 19 18 18 17 16 16 15 14 13 13 12 12 11 11 11 11 11 11 11 11 11 10 10 9
6 5 4 3 3 5 5 4 3 3 2 3 1 3 2 5 7 9 10 9 9 9 9 8 10 13 16 17 17 16 15 14 13 13 12 12 12 12 12 11 11 11 11 10 10 10 10 9 8
5 6 3 2 2 5 5 6 3 3 3 3 3 3 1 4 8 11 11 9 8 7 7 8 7 7 8 10 16 17 16 14 14 14 14 13 13 12 12 10 10 11 10 10 10 9 9 8 7
5 6 1 4 4 5 3 5 5 3 3 5 5 3 3 11 11 11 9 7 7 6 5 6 6 6 6 6 11 13 14 14 13 12 14 12 6 6 7 9 11 11 10 10 9 9 8 7 6
5 4 6 5 4 3 5 3 4 4 6 5 5 7 8 10 10 10 8 7 7 7 6 5 6 6 6 6 6 5 6 7 6 5 7 5 4 4 6 8 12 11 11 10 10 9 7 5 2
4 6 5 5 5 4 3 4 2 2 4 2 2 4 7 8 7 7 6 5 5 5 5 5 5 6 6 4 4 4 3 4 5 6 6 5 4 3 4 3 5 6 8 5 6 5 3 3 2
3 5 5 5 3 2 2 1 3 3 0 1 3 5 7 7 5 4 4 4 4 5 5 5 5 5 5 4 4 4 4 4 4 5 6 5 4 4 4 3 3 3 2 3 3 2 3 3 3
4 5 4 5 4 3 1 1 2 2 2 5 7 7 7 6 4 3 3 3 3 4 4 4 5 5 5 4 3 5 4 5 5 5 6 6 5 5 5 4 3 4 3 3 3 3 4 3 2
4 4 5 5 2 1 4 2 3 1 3 7 8 8 7 5 4 3 3 2 2 2 3 2 4 4 4 4 4 4 4 4 4 5 6 7 6 5 5 5 4 4 4 4 4 4 4 3 2
2 3 6 3 1 1 5 4 2 1 5 8 7 7 7 6 6 4 3 1 1 1 1 2 4 4 4 4 4 3 3 3 4 4 5 7 6 6 5 5 5 5 5 5 4 4 3 2 2
3 3 4 5 2 0 5 1 1 2 6 7 6 6 6 6 6 5 5 4 3 1 1 1 2 2 3 3 3 2 3 3 3 4 4 6 6 6 5 5 5 5 5 5 4 3 3 3 3
6 3 3 6 4 2 4 2 1 4 6 6 5 4 4 5 6 7 7 6 5 2 1 1 0 1 2 2 2 2 2 3 3 3 4 5 6 7 5 5 5 5 5 4 5 3 3 4 4
1 1 3 4 4 4 4 3 2 4 5 5 4 4 4 5 6 6 7 7 6 5 4 3 2 1 2 2 2 2 2 2 2 3 3 5 5 6 6 5 5 5 4 4 5 5 4 4 5
2 1 4 5 1 3 4 4 2 3 4 4 3 4 4 4 5 7 8 8 7 6 6 5 4 3 1 1 2 2 2 2 2 1 1 2 3 4 5 5 5 5 5 6 7 5 6 5 5
3 2 3 3 2 4 5 4 2 3 3 3 3 3 3 4 6 8 9 9 9 8 7 6 5 3 2 1 1 1 2 1 1 1 1 1 0 2 4 5 4 5 5 6 7 7 5 4 5
3 4 4 3 2 4 4 1 1 2 3 4 4 3 3 4 5 7 8 9 9 9 9 7 6 5 3 2 1 1 2 2 1 1 1 2 2 1 1 2 2 3 4 5 7 8 8 6 5
4 5 5 3 3 0 1 2 3 2 2 2 3 4 4 5 5 6 7 8 9 8 7 7 7 6 5 3 1 2 2 2 1 1 2 3 3 2 2 0 1 2 3 4 6 7 5 7 6
4 1 3 3 4 2 2 2 5 2 3 3 3 4 4 4 5 6 7 7 8 8 8 7 7 7 7 5 2 2 2 2 2 3 3 3 3 3 3 2 1 1 1 2 3 4 5 5 5
3 6 6 5 5 1 1 2 5 4 4 4 4 5 4 4 4 5 6 7 7 8 7 7 7 8 8 7 5 4 4 4 4 4 3 2 2 2 3 3 3 2 2 2 2 3 4 4 4
4 6 4 5 4 4 1 2 7 3 2 4 6 6 5 4 4 5 7 8 8 9 9 8 8 8 8 8 7 6 5 4 5 4 3 3 2 3 4 4 3 3 3 3 3 4 4 4 5
2 6 7 4 4 5 2 4 5 2 2 4 7 7 6 4 4 5 5 6 7 8 8 8 8 8 8 8 7 7 6 4 4 5 4 4 3 3 4 4 4 5 5 4 5 4 5 5 5
3 2 4 6 2 1 5 5 2 4 5 6 7 7 6 4 4 4 5 6 7 7 7 7 7 8 8 8 7 8 8 7 6 6 6 5 4 4 6 5 6 6 6 6 6 6 6 6 6
3 7 5 5 3 3 5 4 5 7 8 8 8 7 6 4 4 4 4 5 6 6 6 7 8 8 8 7 7 7 8 7 7 7 7 7 6 6 7 7 7 7 8 8 8 7 7 9 7
2 3 4 4 4 4 3 7 4 7 9 10 9 8 8 6 4 3 3 4 5 6 7 7 8 8 8 8 8 8 8 7 7 8 7 7 7 8 8 8 8 9 8 7 8 8 8 10 9
2 4 6 3 3 4 3 9 2 2 6 9 10 9 8 6 4 3 4 4 5 6 7 7 7 8 7 7 7 8 8 8 8 8 8 7 8 8 8 9 9 9 9 9 9 10 9 10 10
Wind_Direction
311 24 84 63 56 50 254 250 246 284 288 284 264 201 173 174 174 209 160 141 135 141 147 150 149 146 143 139 133 128 124 123 125 127 130 133 135 137 139 140 141 141 141 139 137 134 131 129 130
356 85 62 63 90 206 264 248 249 256 273 317 313 165 157 213 187 130 129 144 137 141 145 148 150 148 145 141 138 134 131 129 128 129 132 134 136 137 139 140 141 139 138 138 137 135 133 132 134
89 63 84 80 128 194 245 247 249 280 282 271 260 77 197 211 156 162 154 141 135 140 143 152 151 149 147 144 142 139 137 135 134 134 135 136 137 137 139 141 141 139 138 138 138 137 137 137 138
85 56 59 83 219 231 239 266 279 297 308 260 179 141 2 11 128 140 135 138 135 139 143 152 152 150 148 147 146 144 142 142 141 140 140 140 140 140 142 143 143 142 141 140 140 140 141 141 141
60 80 73 37 260 256 250 263 272 282 292 293 157 146 28 13 71 107 127 134 136 137 141 151 152 151 150 149 149 148 148 147 147 147 147 146 145 145 146 147 147 146 145 145 144 144 144 144 144
60 72 95 231 267 274 270 262 291 281 277 300 126 121 45 39 82 105 113 115 125 133 135 147 154 154 153 153 154 154 154 153 153 153 153 153 152 151 152 152 153 152 152 151 150 149 148 147 147
104 102 150 198 267 288 277 311 317 315 347 340 89 103 37 54 85 101 99 100 108 121 132 142 153 157 158 159 159 159 159 159 159 159 160 161 161 160 161 160 160 159 159 158 157 156 154 153 151
120 103 127 217 241 273 292 331 320 344 338 348 48 116 166 111 104 97 91 94 105 119 135 144 148 151 157 164 166 165 165 166 167 168 169 170 171 170 170 167 167 167 167 167 165 164 160 159 157
87 78 179 223 214 262 313 344 333 348 33 24 28 46 105 117 109 102 98 97 113 129 137 145 146 147 149 156 171 169 169 172 174 176 177 175 172 171 174 176 177 177 177 177 174 171 167 167 168
90 134 222 221 210 255 308 318 318 17 28 28 34 49 95 110 114 118 126 133 143 153 157 153 155 151 153 166 163 161 167 170 174 175 178 170 161 174 179 186 188 187 187 187 185 182 179 169 157
146 188 230 241 226 241 288 311 350 72 36 34 92 101 106 104 109 121 132 141 155 158 162 161 160 158 162 167 161 163 164 166 176 178 176 164 159 173 180 177 194 194 192 187 190 186 172 164 169
175 233 226 251 221 213 234 293 27 52 125 78 107 121 113 111 119 132 139 140 138 148 166 166 164 165 170 170 170 169 168 173 183 183 176 170 174 184 183 182 185 185 181 177 180 177 178 186 194
207 256 246 248 269 226 146 105 106 57 42 72 86 92 104 113 110 106 112 124 137 157 168 179 174 170 174 174 184 183 179 181 183 182 183 180 186 192 189 190 189 190 183 185 188 189 193 199 209
229 246 276 280 260 203 128 85 90 73 86 84 84 81 79 79 79 72 77 109 162 178 175 173 175 176 174 182 183 185 185 181 183 186 188 186 189 193 193 194 195 198 192 193 194 194 197 201 195
273 309 324 331 32 173 111 37 59 118 95 88 85 83 74 61 57 49 25 357 283 189 162 181 180 175 179 185 188 182 181 176 183 191 191 188 189 192 196 198 202 205 196 192 189 192 187 186 163
36 30 344 316 3 85 112 126 343 72 101 94 90 85 77 59 46 27 13 3 357 34 122 216 190 172 182 179 175 162 169 181 193 193 195 196 192 191 196 203 210 202 193 190 187 185 181 166 141
28 23 319 319 358 51 93 139 42 63 98 101 96 90 83 61 37 22 12 6 3 18 55 41 22 157 165 170 158 164 176 192 190 189 191 197 196 195 200 207 207 192 193 190 188 180 176 155 135
293 329 320 309 332 52 83 115 74 68 99 103 95 82 66 51 28 17 15 14 16 23 30 28 25 72 136 147 149 169 177 202 192 197 191 193 200 197 199 206 205 189 188 187 176 171 159 144 131
188 237 280 277 303 81 105 118 98 89 96 95 87 74 54 38 22 22 21 19 20 25 26 23 20 11 56 144 175 185 196 194 194 194 171 201 202 204 204 208 203 193 194 190 174 162 152 146 136
200 259 276 306 45 113 120 108 98 95 101 104 95 76 49 37 23 20 20 20 17 17 13 15 14 2 353 228 201 187 168 145 145 100 96 89 161 228 223 205 201 195 193 186 175 162 156 162 165
226 207 224 210 47 67 116 75 161 97 96 91 81 77 64 56 34 21 16 15 14 15 8 2 357 356 353 338 126 131 118 99 90 72 58 43 30 8 301 234 208 203 197 193 181 175 170 173 182
258 229 200 168 119 308 109 225 250 194 166 121 99 81 64 50 39 23 16 12 8 4 2 5 5 4 4 2 82 149 155 147 121 103 85 57 38 25 19 37 203 199 195 190 183 178 177 169 178
220 62 117 118 129 84 33 149 272 182 214 195 152 114 83 57 41 24 14 7 6 2 3 4 8 14 13 17 32 97 101 111 104 93 80 66 47 38 36 58 83 149 164 170 173 171 174 176 176
136 72 60 53 72 57 234 173 265 220 214 185 159 133 110 76 44 24 12 10 8 8 8 11 16 21 20 27 38 63 86 99 102 88 79 72 61 52 45 58 69 76 84 110 139 150 160 166 163
85 86 36 5 11 256 260 208 249 223 203 178 163 143 117 85 48 26 15 10 8 8 13 16 21 24 23 32 41 48 60 78 86 87 80 71 60 51 43 49 55 63 65 76 91 111 116 127 136
143 136 154 194 225 274 310 243 254 126 97 117 132 130 117 95 60 39 22 12 9 11 16 20 25 28 29 36 41 45 50 62 69 70 71 63 58 51 50 60 64 66 67 75 81 88 94 100 106
119 121 156 131 146 285 282 279 290 134 129 128 132 133 127 109 78 53 32 20 15 15 18 24 32 35 34 36 46 50 50 55 63 65 64 62 54 58 56 60 66 66 66 69 78 77 80 87 85
104 141 99 114 148 261 288 272 243 198 188 169 161 153 138 120 91 67 42 27 22 20 21 30 37 42 41 40 48 56 53 53 60 66 64 61 54 57 65 64 68 68 67 69 76 78 75 79 73
82 89 99 109 149 166 262 270 234 204 185 175 169 156 146 136 115 86 58 37 30 32 33 34 39 44 43 43 50 55 53 51 58 63 61 61 61 60 64 68 69 68 67 69 76 74 76 79 75
155 163 148 155 223 183 200 267 315 181 166 157 152 144 138 130 118 99 75 54 43 40 40 40 40 45 44 47 53 55 53 53 58 60 59 62 64 61 64 68 68 68 67 66 73 77 73 77 77